Find OneWeb SL0118

NORAD ID: 47264 Int'l Des: 2020-100 Owner: ONEWEB Country: UK Constellation: oneweb operational
LEOCIRCULARPOLARONEWEB_TYPE

当前视图

正在加载3D地球...

About OneWeb SL0118

OneWeb SL0118 (NORAD 47264) is a oneweb constellation satellite launched Dec 18, 2020 by ONEWEB of UK. It operates in LEO, CIRCULAR, POLAR, ONEWEB_TYPE orbit with a mass of 148.00 kg.

关于 OneWeb SL0118

正在加载描述...

即将过境

Passes for default location (London). Set your location on the main map for personalized predictions.

高度历史

Loading altitude history...

两行轨道根数

1 47264U 20100G 26171.45789792 -.00000244 00000-0 -71307-3 0 9997
2 47264 87.8946 350.0021 0002110 91.1708 268.9662 13.12443385265150
Epoch: Jun 20, 2026 • Age: 9 hours

当前状态

高度 1222.7 km
速度 7.25 km/s
星下点 60.59°N, 137.91°E
发射日期 Dec 18, 2020
运行时间 5.5 years
类型 internet

技术详情

分类 Payload
质量 148.00 kg
干质量 140.00 kg
总质量 148.00 kg
长度 1.30 m
直径 1.00 m
跨度 5.00 m
形状 Trapezoid+2 pan
制造商 ONEWUS
平台类型 ARROW
阶段状态 In Orbit
所有者/国家 ONEWEB/UK

Most Searched